Wisconsin Rapids, WI

11:22 AM CDT on May 26, 2018 (GMT -0500)
Alexander Field South Wood County

Weather History for KISW - September, 2012

Change the Weather History Date:

Saturday, September 1, 2012

  Actual Average Record
Temperature  
Mean Temperature 71 °F -  
Max Temperature 82 °F 77 °F 96 °F (1953)
Min Temperature 60 °F 52 °F 32 °F (1992)
Cooling Degree Days 6    
Growing Degree Days 21 (Base 50)    
Moisture  
Dew Point 51 °F    
Average Humidity 53    
Maximum Humidity 80    
Minimum Humidity 30    
Precipitation  
Precipitation 0.00 in - - ()
Sea Level Pressure  
Sea Level Pressure 30.13 in    
Wind  
Wind Speed 8 mph (ENE)    
Max Wind Speed 20 mph    
Max Gust Speed 28 mph    
Visibility 10 miles    
Events      
Averages and records for this station are not official NWS values.
T = Trace of Precipitation, MM = Missing Value Source: NWS Daily Summary

Daily Weather History Graph

Daily Weather History Graph

Search for Another Location

Airport or City:

Astronomy

Sep. 01, 2012 Rise Set
Actual Time 6:22 AM CDT 7:34 PM CDT
Civil Twilight 5:52 AM CDT 8:04 PM CDT
Nautical Twilight 5:16 AM CDT 8:40 PM CDT
Astronomical Twilight 4:38 AM CDT 9:18 PM CDT
Moon 7:45 PM CDT (9/1) 7:35 AM CDT (9/1)
Length of Visible Light 14h 11m
Length of Day
13h 12m
Full, 99% of the Moon is Illuminated
Sep 1
Full
Sep 8
Last Quarter
Sep 15
New
Sep 22
First Quarter
Sep 29
Full

Hourly Weather History & Observations

Time (CDT) Temp. Dew Point Humidity Pressure Visibility Wind Dir Wind Speed Gust Speed Precip Events Conditions
1:54 AM 64.0 °F 55.9 °F 75% 30.14 in 10.0 mi ENE 4.6 mph - N/A   Clear
2:54 AM 62.1 °F 55.9 °F 80% 30.16 in 10.0 mi Calm Calm - N/A   Clear
3:54 AM 61.0 °F 54.0 °F 78% 30.16 in 10.0 mi ENE 4.6 mph - N/A   Clear
5:54 AM 60.1 °F 52.0 °F 75% 30.16 in 10.0 mi ENE 5.8 mph - N/A   Clear
6:54 AM 60.1 °F 52.0 °F 75% 30.17 in 10.0 mi East 5.8 mph - N/A   Clear
7:54 AM 64.0 °F 53.1 °F 67% 30.18 in 10.0 mi ENE 8.1 mph - N/A   Clear
8:54 AM 70.0 °F 53.1 °F 55% 30.18 in 10.0 mi East 11.5 mph 16.1 mph N/A   Clear
9:54 AM 73.0 °F 51.1 °F 46% 30.17 in 10.0 mi East 10.4 mph - N/A   Clear
10:54 AM 77.0 °F 50.0 °F 39% 30.17 in 10.0 mi East 13.8 mph 21.9 mph N/A   Clear
11:16 AM 75.2 °F 48.2 °F 38% 30.17 in 10.0 mi East 19.6 mph 27.6 mph N/A   Partly Cloudy
11:54 AM 78.1 °F 48.0 °F 35% 30.16 in 10.0 mi ENE 13.8 mph 23.0 mph N/A   Clear
12:54 PM 80.1 °F 48.9 °F 34% 30.14 in 10.0 mi East 11.5 mph 20.7 mph N/A   Clear
2:54 PM 82.0 °F 48.0 °F 30% 30.11 in 10.0 mi ESE 10.4 mph 18.4 mph N/A   Clear
3:54 PM 80.1 °F 50.0 °F 35% 30.09 in 10.0 mi East 12.7 mph 21.9 mph N/A   Clear
4:54 PM 80.1 °F 48.9 °F 34% 30.08 in 10.0 mi ENE 15.0 mph 21.9 mph N/A   Clear
5:54 PM 79.0 °F 52.0 °F 39% 30.08 in 10.0 mi East 9.2 mph - N/A   Clear
6:54 PM 75.0 °F 50.0 °F 41% 30.08 in 10.0 mi East 9.2 mph - N/A   Clear
7:54 PM 72.0 °F 51.1 °F 48% 30.08 in 10.0 mi East 8.1 mph - N/A   Clear
8:54 PM 66.9 °F 51.1 °F 57% 30.08 in 10.0 mi East 3.5 mph - N/A   Clear
9:54 PM 64.0 °F 51.1 °F 63% 30.08 in 10.0 mi NNE 5.8 mph - N/A   Clear
11:54 PM 61.0 °F 51.1 °F 70% 30.07 in 10.0 mi ENE 5.8 mph - N/A   Clear